Flag for French Guiana Weather past 2 weeks in Cayenne, French Guiana

Now
75 °F

Mild.


Feels Like: 73 °F
Forecast: 78 / 87 °F
Wind: No wind

Location: Cayenne / Rochambeau

Current Time: Aug 30, 2015 at 7:55:23 AM

Latest Report: Aug 30, 2015 at 7:30 AM


Visibility: N/A

Pressure: 29.95 "Hg

Humidity: 100%

Dew point: 75 °F

Location of CayenneLocation

Historic Weather in Cayenne — Graph

°F

Cayenne temperature yesterday

Maximum temperature yesterday: 90 °F (at 1:30 PM)
Minimum temperature yesterday: 75 °F (at 12:00 AM)
Average temperature yesterday: 82 °F

Past Weeks' High & Low Weather Summary

 TemperatureHumidityPressure
High91 °F (Aug 27, 2:00 PM)100% (Aug 16, 4:00 AM)29.98 "Hg (Aug 16, 4:00 AM)
Low72 °F (Aug 19, 4:00 AM)55% (Aug 23, 1:00 PM)29.80 "Hg (Aug 22, 3:00 PM)
Average80 °F85%29.89 "Hg
* Reported Aug 15 7:00 AM — Aug 30 7:00 AM, Cayenne, Weather by CustomWeather, © 2015

Note: Actual official high and low records may vary slightly from our data, if they occured in-between our weather recording intervals... More about our weather records

Advertising

Cayenne weather history for previous 24 hours

 ConditionsComfort  
Time TempWeatherWind HumidityBarometerVisibility
7:00 AM
Sun, Aug 30
73 °FMild.No wind100%29.95 "HgN/A
6:30 AM73 °FMild.No wind94%29.92 "HgN/A
6:00 AM73 °FPassing clouds.No wind94%29.92 "HgN/A
5:30 AM73 °FPassing clouds.No wind94%29.92 "HgN/A
5:00 AM73 °FMild.No wind100%29.92 "HgN/A
4:30 AM73 °FClear.No wind100%29.92 "Hg10 mi
4:00 AM73 °FMild.No wind100%29.92 "HgN/A
3:30 AM75 °FMild.No wind94%29.92 "HgN/A
3:00 AM75 °FPassing clouds.No wind94%29.92 "HgN/A
2:30 AM77 °FPassing clouds.No wind89%29.92 "HgN/A
2:00 AM77 °FPartly cloudy.No wind94%29.92 "HgN/A
1:00 AM77 °FWarm.No wind89%29.95 "HgN/A
12:30 AM77 °FPassing clouds.No wind94%29.95 "HgN/A
12:00 AM77 °FPassing clouds.2 mph94%29.95 "HgN/A
11:30 PM
Sat, Aug 29
79 °FWarm.No wind84%29.95 "HgN/A
11:00 PM79 °FWarm.2 mph89%29.95 "HgN/A
10:30 PM81 °FWarm.3 mph84%29.95 "HgN/A
10:00 PM81 °FWarm.6 mph84%29.95 "HgN/A
9:30 PM79 °FWarm.5 mph89%29.95 "HgN/A
9:00 PM81 °FWarm.6 mph84%29.92 "HgN/A
8:30 PM81 °FWarm.7 mph84%29.92 "HgN/A
8:00 PM81 °FWarm.8 mph84%29.92 "HgN/A
7:30 PM81 °FWarm.7 mph84%29.89 "HgN/A
7:00 PM81 °FWarm.7 mph84%29.89 "HgN/A
6:00 PM82 °FWarm.7 mph79%29.89 "HgN/A
5:30 PM82 °FWarm.9 mph79%29.89 "HgN/A
5:00 PM84 °FWarm.8 mph74%29.89 "HgN/A
4:30 PM84 °FWarm.8 mph74%29.89 "HgN/A
4:00 PM84 °FWarm.8 mph74%29.89 "HgN/A
3:30 PM86 °FWarm.6 mph70%29.89 "HgN/A
3:00 PM86 °FPartly sunny.7 mph70%29.89 "HgN/A
2:30 PM88 °FBroken clouds.14 mph59%29.89 "HgN/A
2:00 PM88 °FBroken clouds.14 mph66%29.89 "HgN/A
1:30 PM90 °FBroken clouds.12 mph63%29.92 "HgN/A
1:00 PM88 °FBroken clouds.15 mph66%29.95 "HgN/A
12:30 PM88 °FBroken clouds.8 mph70%29.95 "HgN/A
12:00 PM88 °FBroken clouds.10 mph70%29.98 "HgN/A
11:30 AM86 °FMostly cloudy.9 mph75%29.98 "HgN/A
11:00 AM88 °FPartly sunny.8 mph66%29.95 "HgN/A
10:30 AM88 °FPartly sunny.7 mph66%29.95 "HgN/A
10:00 AM86 °FPartly sunny.7 mph70%29.95 "HgN/A
9:30 AM86 °FMore clouds than sun.5 mph75%29.95 "HgN/A
9:00 AM84 °FBroken clouds.No wind79%29.95 "HgN/A
8:30 AM81 °FWarm.No wind89%29.95 "HgN/A
8:00 AM77 °FMore clouds than sun.No wind94%29.95 "HgN/A
7:00 AM75 °FLow clouds.No wind100%29.95 "HgN/A
Weather by CustomWeather, © 2015

See weather overviewHow to use our weather pages